Regional Weather Roundup
Issued by NWS Burlington, VT

Current Version | Previous Version | Graphics & Text | Print | Product List | Glossary Off
Versions: 1 2 3 4 5 6 7 8 9 10 11 12 13 14 15 16 17 18 19 20 21 22 23 24 25 26 27 28 29 30 31 32 33 34 35 36 37 38 39 40 41 42 43 44 45 46 47 48 49 50

000
ASUS41 KBTV 190510
RWRBTV
VERMONT REGIONAL WEATHER ROUNDUP
NATIONAL WEATHER SERVICE BURLINGTON VT
100 AM EDT SUN APR 19 2015

NOTE: "FAIR" INDICATES FEW OR NO CLOUDS BELOW 12,000 FEET WITH NO
SIGNIFICANT WEATHER AND/OR OBSTRUCTIONS TO VISIBILITY.

* THESE REPORTS ARE NOT UNDER NWS QUALITY CONTROL AND/OR DO NOT
  REPORT WEATHER SUCH AS PRECIPITATION AND FOG.

VTZ001>019-190600-
_____VERMONT_____


CITY           SKY/WX    TMP DP  RH WIND       PRES   REMARKS
BURLINGTON     CLOUDY    43  29  57 N12       30.20R
MONTPELIER     MOCLDY    40  30  67 VRB5      30.19R
MORRISVILLE    CLOUDY    41  31  67 N8G17     30.18R
ST. JOHNSBURY*   N/A     43  34  70 MISG      30.13R
LYNDONVILLE*   CLOUDY    40  31  71 W9        30.15R
MIDDLEBURY*      N/A     42  31  63 N10G18    30.17R
RUTLAND*       CLEAR     41  30  65 NW8       30.14S
SPRINGFIELD    CLEAR     46  31  55 N10G17    30.12S
HIGHGATE*      CLOUDY    40  31  70 NW5       30.20R
NEWPORT*       CLOUDY    38  33  81 NW8G17    30.15S
BENNINGTON     CLEAR     46  31  55 N5        30.12R

_____LAKE CHAMPLAIN_____


CITY           SKY/WX    TMP DP  RH WIND       PRES   REMARKS

$$

NYZ007-026>031-035-052-083-190600-
_____NORTHERN NEW YORK_____


CITY           SKY/WX    TMP DP  RH WIND       PRES   REMARKS
PLATTSBURGH    CLEAR     41  29  62 NW12      30.21R
SARANAC LAKE   CLEAR     33  26  75 CALM      30.16S
MASSENA        CLEAR     40  26  57 N8        30.25R
OGDENSBURG*    CLEAR     39  30  70 N6        30.25R
POTSDAM*       CLEAR     39  30  70 NE7       30.24R
WATERTOWN      CLEAR     44  29  55 N15       30.23R
FT DRUM        CLEAR     41  29  62 NE12      30.22R
ALBANY         CLEAR     47  30  51 NE6       30.15R
GLENS FALLS    CLEAR     43  33  68 N10       30.16R

$$
NHZ002-005-011-190600-
_____NEW HAMPSHIRE_____


CITY           SKY/WX    TMP DP  RH WIND       PRES   REMARKS
LEBANON        CLEAR     44  31  60 N8        30.13R
KEENE          CLEAR     46  32  57 NE5       30.12R
MT WASHINGTON  FOG       19  19 100 NW45G56     N/A  VSB 0   WCI  -3
PLYMOUTH         N/A     44  36  75 W6        30.11S
WHITEFIELD     CLOUDY    41  33  73 NW3       30.13R

$$

_____REGIONAL QUEBEC LOCATIONS_____


CITY           SKY/WX    TMP DP  RH WIND       PRES   REMARKS
MONTREAL       PTCLDY    37  28  70 W7        30.24R
QUEBEC CITY    MOCLDY    36  34  93 NW7       30.15R
SHERBROOKE     CLOUDY    36 N/A N/A W2        30.14R

_____REGIONAL ONTARIO LOCATIONS_____


CITY           SKY/WX    TMP DP  RH WIND       PRES   REMARKS
OTTAWA         PTCLDY    39  27  60 N9        30.27R

______KEY______
VSB  - VISIBILITY IN MILES
WCI  - WIND CHILL INDEX
HX   - HEAT INDEX
$$
NNNN


USA.gov is the U.S. government's official web portal to all federal, state and local government web resources and services.